Location: Seattle
(47.6064°N, 122.3308°W)
Time: 03:57:18
(UTC-08:00)

N. Korean satellite - Pass Details

Date: 27 October 2020
Orbit: 453 x 503 km, 97.2° (Epoch: 03 December)

Event Time Altitude Azimuth Distance (km) Brightness Sun altitude
Rises 06:14:17 0° 21° (NNE) 2,485 10.4 -16.1°
Reaches altitude 10° 06:16:29 10° 31° (NNE) 1,602 9.6 -15.8°
Maximum altitude 06:19:36 32° 97° (E) 803 8.4 -15.2°
Drops below altitude 10° 06:22:42 10° 162° (SSE) 1,586 9.4 -14.7°
Sets 06:24:51 0° 173° (S) 2,455 10.3 -14.3°
